Flag for U.S.A. Weather past 2 weeks in Evansville, Indiana, U.S.A.

Now
26 °F

Clear.


Feels Like: 19 °F
Forecast: 25 / 42 °F
Wind: 6 mph from Northeast

Location: Evansville Regional Airport

Current Time: Mar 28, 2015 at 5:15:50 AM

Latest Report: Mar 28, 2015 at 3:54 AM


Visibility: 10 mi

Pressure: 30.22 "Hg

Humidity: 71%

Dew point: 18 °F

Location of EvansvilleLocation

Historic Weather in Evansville — Graph

°F

Evansville temperature yesterday

Maximum temperature yesterday: 42 °F (at 9:54 AM)
Minimum temperature yesterday: 31 °F (at 3:54 AM)
Average temperature yesterday: 37 °F

Past Weeks' High & Low Weather Summary

 TemperatureHumidityPressure
High75 °F (Mar 16, 4:54 PM)97% (Mar 14, 5:54 AM)30.37 "Hg (Mar 14, 5:54 AM)
Low26 °F (Mar 28, 3:54 AM)22% (Mar 22, 1:54 PM)29.87 "Hg (Mar 26, 4:54 AM)
Average50 °F66%30.11 "Hg
* Reported Mar 13 3:54 AM — Mar 28 3:54 AM, Evansville, Weather by CustomWeather, © 2015

Note: Actual official high and low records may vary slightly from our data, if they occured in-between our weather recording intervals... More about our weather records

Advertising

Evansville weather history for previous 24 hours

 ConditionsComfort  
Time TempWeatherWind HumidityBarometerVisibility
3:54 AM
Sat, Mar 28
26 °FClear.6 mph71%30.22 "Hg10 mi
2:54 AM28 °FClear.3 mph66%30.22 "Hg10 mi
1:54 AM29 °FClear.No wind61%30.22 "Hg10 mi
12:54 AM30 °FClear.5 mph61%30.21 "Hg10 mi
11:54 PM
Fri, Mar 27
31 °FClear.3 mph61%30.21 "Hg10 mi
10:54 PM32 °FClear.5 mph61%30.20 "Hg10 mi
9:54 PM34 °FClear.6 mph59%30.19 "Hg10 mi
8:54 PM35 °FPassing clouds.9 mph56%30.17 "Hg10 mi
7:54 PM38 °FOvercast.6 mph48%30.15 "Hg10 mi
6:54 PM38 °FOvercast.9 mph46%30.14 "Hg10 mi
5:54 PM39 °FOvercast.14 mph46%30.12 "Hg10 mi
4:54 PM40 °FOvercast.12 mph45%30.11 "Hg10 mi
3:54 PM40 °FMore clouds than sun.9 mph47%30.10 "Hg10 mi
2:54 PM39 °FMostly cloudy.15 mph53%30.11 "Hg10 mi
1:54 PM40 °FMostly cloudy.18 mph60%30.11 "Hg10 mi
12:54 PM40 °FMore clouds than sun.13 mph60%30.11 "Hg10 mi
11:54 AM40 °FMore clouds than sun.13 mph63%30.10 "Hg8 mi
10:54 AM42 °FPartly sunny.10 mph60%30.09 "Hg10 mi
9:54 AM42 °FPassing clouds.10 mph65%30.08 "Hg9 mi
8:54 AM39 °FPartly sunny.10 mph70%30.07 "Hg8 mi
7:54 AM37 °FOvercast.7 mph73%30.06 "Hg8 mi
6:54 AM36 °FMostly cloudy.7 mph75%30.04 "Hg8 mi
5:54 AM36 °FClear.5 mph79%30.03 "Hg9 mi
Weather by CustomWeather, © 2015

See weather overviewHow to use our weather pages